[[{"header":{"parameterUnit":"m.s-1","parameterCategory":2,"la1":30.2991,"la2":30.254,"lo1":-89.0895,"lo2":-89.0444,"dy":0.0017,"dx":0.0017,"nx":28,"ny":28,"refTime":"2024-07-01T21:00:00:Z","depth":"0","parameterNumber":2,"parameterNumberName":"U-component_of_CURRENTS"},"data":[0,0,0,0,0,0,0,0,0,0,0,0,0,0,0,0,0,0,0,0,0,0,0,0,0,0,0,0,0,0,0,0,0,0,0,0,0,0,0,0,0,0,0,0,0,0,0,0,0,0,0,0,0,0,0,0,0,0,0.1146,0.1145,0,0.113,0.113,0.113,0.1015,0.1011,0.1008,0.1005,0.1073,0.1078,0.1082,0,0,0,0,0,0,0,0,0,0,0,0,0,0.1086,0.1089,0.1146,0.1145,0.1145,0.113,0.113,0.113,0.1015,0.1011,0.1007,0.1004,0.1071,0.1077,0.1083,0,0,0,0,0,0,0,0,0,0,0,0,0,0.1101,0.1089,0.1146,0.1082,0.1075,0.1129,0.113,0.113,0.1016,0.1011,0.1006,0.1002,0.1069,0.1076,0.1084,0.1228,0,0,0.1106,0.1109,0,0,0,0,0,0,0,0,0.11,0.1104,0.1092,0.1086,0.1079,0.1064,0.1133,0.1165,0.1017,0.1044,0.1005,0.0999,0.1078,0.1085,0.1099,0.1231,0.1234,0.1107,0.1111,0.1114,0.1116,0,0,0,0,0,0,0,0.1099,0.1104,0.1145,0.1091,0.1084,0.1056,0.1053,0.1139,0.1095,0.1042,0.1032,0.1023,0.1075,0.1092,0.11,0.1235,0.1107,0.1113,0.1118,0.112,0.1813,0.1826,0,0,0,0,0,0,0.1096,0.1104,0.1145,0.1144,0.1071,0.1061,0.1058,0.1079,0.1092,0.1087,0.1027,0.1018,0.1082,0.1091,0.1102,0.1454,0.1114,0.1121,0.1125,0.1799,0.1816,0.1831,0,0,0,0,0,0,0.1096,0.1102,0.1146,0.1116,0.1119,0.1066,0.1091,0.1081,0.1112,0.1079,0.1076,0.1068,0.1078,0.1091,0.1302,0.1448,0.1124,0.1131,0.1782,0.1804,0.1823,0.2044,0,0,0,0,0,0,0.1095,0.1103,0.1119,0.1118,0.1121,0.1229,0.1095,0.1084,0.111,0.1098,0.1115,0.1114,0.1075,0.1293,0.1309,0.1452,0.1137,0.1765,0.1792,0.1817,0.2019,0.207,0.2114,0,0,0,0,0,0.1094,0.1134,0.1121,0.1125,0.1146,0.1234,0.1238,0.1183,0.1117,0.1183,0.1247,0.1114,0.1471,0.131,0.1326,0.1474,0.1752,0.1784,0.1815,0.1998,0.206,0.2113,0,0,0,0,0,0,0.1106,0.1126,0.1111,0.1152,0.1214,0.1213,0.1247,0.1226,0.1321,0.1316,0.1276,0.129,0.1548,0.1531,0.1354,0.1781,0.1599,0.1635,0.1733,0.1791,0.1838,0.177,0.1143,0,0,0,0,0,0.1125,0.117,0.12,0.1246,0.128,0.1282,0.1304,0.1296,0.1364,0.1392,0.1427,0.1526,0.1699,0.1749,0.1889,0.209,0.2054,0.2222,0.2269,0.2307,0.2286,0.2443,0.2496,0.1934,0.1934,0.1933,0,0,0.1144,0.1158,0.1183,0.1254,0.1285,0.1396,0.1287,0.1367,0.1477,0.1399,0.1592,0.1703,0.1813,0.2068,0.2177,0.2048,0.2465,0.2347,0.2376,0.2334,0.2481,0.2533,0.2579,0.1956,0.1952,0.1948,0,0,0.1234,0.1234,0.1317,0.139,0.1463,0.149,0.1533,0.1605,0.1652,0.1873,0.1892,0.2107,0.2298,0.2423,0.2505,0.2917,0.2743,0.2971,0.309,0.3247,0.3288,0.3325,0.3353,0.339,0.2949,0.295,0.295,0,0.126,0.1357,0.1364,0.148,0.1547,0.1553,0.1692,0.1776,0.1919,0.2009,0.1978,0.2387,0.2479,0.2788,0.2942,0.3008,0.3003,0.2826,0.3289,0.3324,0.3357,0.3377,0.3414,0.2964,0.2962,0.2961,0.296,0,0.1427,0.1513,0.1581,0.1729,0.182,0.1943,0.2051,0.2181,0.2242,0.2318,0.2643,0.2808,0.3005,0.3136,0.3151,0.3476,0.3369,0.3343,0.3085,0.3423,0.3428,0.3462,0.2985,0.298,0.2975,0.2972,0,0,0.148,0.166,0.1687,0.1778,0.1958,0.2045,0.2276,0.2474,0.258,0.2793,0.2961,0.3353,0.3362,0.3468,0.3539,0.3685,0.3952,0.3596,0.3598,0.3517,0.4194,0.4118,0.4144,0.3969,0.3977,0.3983,0.4096,0,0.162,0.1848,0.1908,0.2144,0.2283,0.2369,0.2553,0.2733,0.2867,0.3036,0.3244,0.3444,0.3506,0.358,0.3773,0.3898,0.4054,0.3917,0.397,0.397,0.3774,0.419,0.4093,0.4187,0.4128,0.4133,0.4137,0,0.1785,0.1906,0.2148,0.2333,0.2393,0.2518,0.2755,0.2915,0.3152,0.3245,0.3464,0.3552,0.3841,0.3812,0.4177,0.4062,0.4167,0.4249,0.4254,0.411,0.3962,0.3859,0.4249,0.4184,0.4188,0.4184,0.418,0,0.1847,0.2073,0.225,0.2332,0.2552,0.2652,0.2754,0.2986,0.3092,0.3326,0.3395,0.3716,0.3839,0.4066,0.4265,0.4214,0.4584,0.4525,0.4563,0.455,0.4445,0.4411,0.4683,0.4818,0.4818,0.4817,0.4817,0,0.2,0.2137,0.2264,0.2375,0.2517,0.2663,0.2816,0.2956,0.3127,0.3247,0.3452,0.3599,0.3913,0.4137,0.43,0.4539,0.463,0.4652,0.4636,0.4529,0.4504,0.4411,0.4365,0.4821,0.482,0.482,0.4819,0,0.2088,0.2191,0.2356,0.2527,0.2558,0.2649,0.2763,0.2861,0.302,0.3168,0.3225,0.3542,0.3833,0.4104,0.4462,0.4569,0.4708,0.4853,0.4643,0.4604,0.453,0.4499,0.4499,0.4423,0.4898,0.4898,0.4897,0,0.2176,0.2276,0.2399,0.2419,0.2479,0.2584,0.2641,0.2796,0.2876,0.314,0.3204,0.3517,0.3731,0.4191,0.4476,0.4743,0.4701,0.4794,0.475,0.4588,0.4545,0.432,0.424,0.4689,0.4687,0.4686,0.4684,0,0.228,0.2287,0.237,0.2408,0.2441,0.2498,0.2578,0.2618,0.2803,0.2915,0.311,0.3283,0.3742,0.4039,0.4415,0.4589,0.4598,0.4765,0.4723,0.4542,0.4198,0.409,0.4444,0.467,0.4672,0.4673,0.4674,0.4674,0.2268,0.2285,0.2321,0.2355,0.2371,0.239,0.2409,0.2497,0.2583,0.2739,0.2959,0.318,0.3689,0.421,0.4332,0.4546,0.4483,0.4557,0.4565,0.4372,0.4238,0.4504,0.4636,0.4637,0.4638,0.4639,0.4639,0,0.2219,0.2222,0.2257,0.2255,0.2232,0.2287,0.2342,0.2352,0.2403,0.26,0.2745,0.3219,0.3591,0.3991,0.4423,0.4403,0.4218,0.4359,0.408,0.4042,0.4427,0.436,0.4288,0.4288,0.4288,0.4288,0.4288,0.4288,0.2166,0.2152,0.2173,0.2107,0.2101,0.2063,0.2076,0.2114,0.2231,0.2422,0.2649,0.2907,0.353,0.4196,0.4418,0.4351,0.409,0.3908,0.3903,0.4239,0.4257,0.4274,0.4206,0.4103,0.4103,0.337,0.3366,0.3362]},{"header":{"parameterUnit":"m.s-1","parameterCategory":2,"la1":30.2991,"la2":30.254,"lo1":-89.0895,"lo2":-89.0444,"dy":0.0017,"dx":0.0017,"nx":28,"ny":28,"refTime":"2024-07-01T21:00:00:Z","depth":"0","parameterNumber":3,"parameterNumberName":"V-component_of_CURRENTS"},"data":[0,0,0,0,0,0,0,0,0,0,0,0,0,0,0,0,0,0,0,0,0,0,0,0,0,0,0,0,0,0,0,0,0,0,0,0,0,0,0,0,0,0,0,0,0,0,0,0,0,0,0,0,0,0,0,0,0,0,0.04,0.0401,0,0.0494,0.0496,0.0497,0.0527,0.0526,0.0525,0.0525,0.0548,0.0549,0.055,0,0,0,0,0,0,0,0,0,0,0,0,0,0.0271,0.0273,0.04,0.0401,0.0402,0.0494,0.0496,0.0497,0.0527,0.0526,0.0525,0.0525,0.0547,0.0549,0.055,0,0,0,0,0,0,0,0,0,0,0,0,0,0.0344,0.0274,0.04,0.0427,0.043,0.0494,0.0496,0.0497,0.0527,0.0526,0.0525,0.0524,0.0547,0.0549,0.055,0.0579,0,0,0.0556,0.0556,0,0,0,0,0,0,0,0,0.034,0.0349,0.0422,0.0425,0.0429,0.0496,0.0459,0.0521,0.0527,0.0492,0.0525,0.0524,0.0524,0.0527,0.055,0.058,0.0581,0.0556,0.0557,0.0558,0.0558,0,0,0,0,0,0,0,0.0335,0.0345,0.0439,0.0423,0.0427,0.0443,0.0452,0.0471,0.0511,0.0495,0.0497,0.0505,0.0525,0.0549,0.0551,0.0581,0.0556,0.0557,0.0558,0.0559,0.084,0.0846,0,0,0,0,0,0,0.032,0.034,0.0436,0.0442,0.0379,0.0446,0.0456,0.0477,0.0513,0.0518,0.0506,0.0506,0.0546,0.0549,0.0551,0.0784,0.0558,0.0559,0.056,0.0833,0.0841,0.0848,0,0,0,0,0,0,0.0317,0.0328,0.0432,0.0391,0.0405,0.0448,0.0472,0.0479,0.0515,0.0522,0.0525,0.0535,0.0545,0.0549,0.0667,0.0777,0.056,0.0562,0.0826,0.0836,0.0845,0.1123,0,0,0,0,0,0,0.0313,0.0327,0.0358,0.039,0.0407,0.0528,0.0473,0.0482,0.052,0.0522,0.0547,0.0548,0.0545,0.0665,0.0669,0.0776,0.0563,0.0818,0.083,0.0842,0.1105,0.1141,0.1171,0,0,0,0,0,0.0308,0.0365,0.036,0.0372,0.0442,0.0532,0.0546,0.0571,0.0522,0.0588,0.0629,0.0548,0.0743,0.0673,0.0675,0.0785,0.0812,0.0827,0.0841,0.1091,0.1134,0.117,0,0,0,0,0,0,0.0343,0.0374,0.0369,0.0436,0.05,0.0538,0.0604,0.0581,0.0659,0.0661,0.0635,0.0645,0.0796,0.0752,0.0674,0.0905,0.0761,0.0776,0.095,0.099,0.1022,0.1003,0.0564,0,0,0,0,0,0.0357,0.04,0.0443,0.0504,0.0545,0.0566,0.0603,0.0616,0.0672,0.0702,0.0731,0.0771,0.0855,0.089,0.0953,0.1063,0.0959,0.1135,0.1168,0.1196,0.1186,0.117,0.1199,0.0896,0.0895,0.0895,0,0,0.0383,0.0409,0.0433,0.0514,0.0564,0.0688,0.0591,0.0675,0.0786,0.0692,0.0873,0.0891,0.0915,0.1083,0.114,0.1057,0.123,0.1214,0.1238,0.1212,0.1188,0.1217,0.1242,0.0905,0.0904,0.0902,0,0,0.0503,0.0495,0.06,0.0669,0.0755,0.0778,0.0803,0.0874,0.0925,0.1081,0.1061,0.1154,0.1262,0.1324,0.1357,0.1594,0.1413,0.1601,0.1741,0.173,0.1752,0.1771,0.1667,0.1675,0.1606,0.1607,0.1607,0,0.0544,0.0672,0.0651,0.0796,0.0873,0.0829,0.0987,0.1048,0.1152,0.1199,0.1187,0.1362,0.1391,0.1556,0.1667,0.1669,0.1578,0.159,0.1767,0.1783,0.1798,0.1686,0.1691,0.1622,0.162,0.1619,0.1617,0,0.0764,0.0875,0.0954,0.1111,0.1191,0.1311,0.1381,0.1458,0.148,0.152,0.1682,0.1737,0.1807,0.1865,0.1851,0.1984,0.1858,0.1815,0.1653,0.1844,0.1716,0.1715,0.1644,0.1638,0.1634,0.163,0,0,0.0848,0.1063,0.1095,0.1219,0.1359,0.1448,0.1617,0.1749,0.1821,0.1928,0.2032,0.2216,0.2146,0.2178,0.2154,0.2168,0.2222,0.2042,0.2034,0.1912,0.2111,0.2104,0.2099,0.2192,0.2194,0.2196,0.1974,0,0.1045,0.1335,0.1388,0.1667,0.1831,0.1836,0.1994,0.2083,0.2124,0.2212,0.223,0.2324,0.2292,0.2303,0.2334,0.2268,0.2234,0.228,0.1964,0.1954,0.1905,0.2107,0.1939,0.1736,0.1972,0.1971,0.1971,0,0.1278,0.1431,0.1722,0.1941,0.2009,0.2146,0.2292,0.2423,0.2486,0.2514,0.2549,0.2492,0.2564,0.247,0.2428,0.2447,0.2292,0.2209,0.2197,0.2086,0.195,0.1589,0.1723,0.1427,0.1967,0.1968,0.1968,0,0.1379,0.1674,0.189,0.1978,0.221,0.2312,0.2413,0.2509,0.2605,0.2641,0.266,0.2688,0.2699,0.2578,0.2408,0.2404,0.2277,0.224,0.2061,0.2051,0.1795,0.1765,0.1583,0.2138,0.2138,0.2139,0.2139,0,0.1584,0.1767,0.1946,0.208,0.2293,0.2422,0.2599,0.2674,0.2772,0.2869,0.2793,0.2844,0.2725,0.2613,0.2432,0.2267,0.2284,0.2109,0.2034,0.1892,0.1874,0.1509,0.1364,0.213,0.2132,0.2134,0.2135,0,0.1697,0.1825,0.2067,0.2292,0.2359,0.2502,0.2697,0.2803,0.2883,0.2983,0.2984,0.2983,0.2871,0.2653,0.2449,0.2321,0.1937,0.2003,0.1811,0.1726,0.1399,0.1277,0.1067,0.0911,0.184,0.1839,0.1838,0,0.1799,0.1932,0.216,0.2258,0.2365,0.2559,0.2676,0.2834,0.2935,0.307,0.3123,0.3039,0.3012,0.2718,0.2403,0.2053,0.1797,0.168,0.1713,0.1394,0.12,0.1177,0.1058,0.1431,0.1427,0.1424,0.1421,0,0.1945,0.1988,0.2146,0.2321,0.2465,0.2637,0.2823,0.2921,0.3085,0.317,0.3282,0.3274,0.3005,0.2674,0.2222,0.1956,0.1473,0.1613,0.1322,0.0934,0.0848,0.0653,0.1496,0.1392,0.1395,0.1397,0.1399,0.14,0.1993,0.2085,0.2231,0.2389,0.2526,0.2695,0.2836,0.2988,0.3153,0.3302,0.3368,0.3381,0.2909,0.2341,0.1933,0.1124,0.1287,0.0906,0.0789,0.0803,0.0672,0.1465,0.1292,0.1294,0.1296,0.1298,0.1299,0,0.2065,0.2148,0.2294,0.2479,0.2593,0.2686,0.2913,0.3037,0.3181,0.3321,0.3425,0.3194,0.2513,0.1846,0.0847,0.0369,0.019,0.0082,-0.0082,-0.0156,0.0526,0.0529,0.0137,0.0137,0.0137,0.0138,0.0138,0.0138,0.2115,0.2235,0.2298,0.2479,0.2597,0.2775,0.29,0.307,0.3209,0.3314,0.3317,0.3366,0.2879,0.1115,-0.0172,-0.0473,-0.083,-0.0864,-0.0945,-0.0607,-0.0541,-0.0479,-0.0509,-0.1112,-0.1114,-0.1648,-0.1654,-0.1659]}],[{"header":{"parameterUnit":"m.s-1","parameterCategory":2,"la1":30.2991,"la2":30.254,"lo1":-89.0895,"lo2":-89.0444,"dy":0.0017,"dx":0.0017,"nx":28,"ny":28,"refTime":"2024-07-01T21:00:00:Z","depth":"2","parameterNumber":2,"parameterNumberName":"U-component_of_CURRENTS"},"data":[0,0,0,0,0,0,0,0,0,0,0,0,0,0,0,0,0,0,0,0,0,0,0,0,0,0,0,0,0,0,0,0,0,0,0,0,0,0,0,0,0,0,0,0,0,0,0,0,0,0,0,0,0,0,0,0,0,0,0.1427,0.1427,0,0.1471,0.1472,0.1472,0.1463,0.1462,0.1461,0.146,0.1403,0.1403,0.1402,0,0,0,0,0,0,0,0,0,0,0,0,0,0.134,0.1342,0.1427,0.1428,0.1428,0.1471,0.1472,0.1473,0.1463,0.1462,0.1461,0.146,0.1404,0.1403,0.1402,0,0,0,0,0,0,0,0,0,0,0,0,0,0.1382,0.1342,0.1427,0.1427,0.1427,0.1471,0.1472,0.1473,0.1464,0.1462,0.1461,0.1459,0.1404,0.1403,0.1402,0.1426,0,0,0.1399,0.1399,0,0,0,0,0,0,0,0,0.1379,0.1385,0.1427,0.1427,0.1428,0.1459,0.142,0.1452,0.1464,0.1452,0.146,0.1459,0.1412,0.1411,0.1426,0.1423,0.1421,0.1399,0.1399,0.1398,0.1398,0,0,0,0,0,0,0,0.1377,0.1383,0.1446,0.1427,0.1428,0.1426,0.1431,0.1427,0.1439,0.1453,0.1452,0.1454,0.1412,0.1427,0.1425,0.142,0.1399,0.1398,0.1398,0.1398,0.1507,0.151,0,0,0,0,0,0,0.1369,0.1381,0.1445,0.1448,0.1397,0.1429,0.1434,0.1452,0.1442,0.1439,0.1455,0.1454,0.143,0.1426,0.1422,0.1519,0.1398,0.1397,0.1397,0.1504,0.1508,0.1511,0,0,0,0,0,0,0.1368,0.1375,0.1443,0.1412,0.1421,0.1432,0.1452,0.1453,0.1474,0.1444,0.144,0.1474,0.1428,0.1424,0.1445,0.1513,0.1397,0.1396,0.15,0.1505,0.151,0.1667,0,0,0,0,0,0,0.1365,0.1375,0.1367,0.1413,0.1422,0.1479,0.1453,0.1455,0.1476,0.1474,0.1459,0.1452,0.1427,0.1447,0.1445,0.151,0.1396,0.1495,0.1502,0.1508,0.1658,0.1677,0.1694,0,0,0,0,0,0.1362,0.1365,0.1367,0.1373,0.1417,0.148,0.1486,0.1489,0.1479,0.15,0.1499,0.1453,0.1487,0.1449,0.1445,0.1512,0.1492,0.15,0.1507,0.165,0.1674,0.1694,0,0,0,0,0,0,0.1329,0.1366,0.1368,0.1383,0.143,0.1478,0.1488,0.1501,0.1521,0.1507,0.1487,0.1482,0.1527,0.1501,0.146,0.1566,0.1486,0.1493,0.1596,0.1617,0.1635,0.1614,0.1395,0,0,0,0,0,0.1318,0.1333,0.1379,0.1398,0.1419,0.1459,0.1476,0.1487,0.1516,0.1523,0.1526,0.1531,0.1559,0.157,0.1571,0.1626,0.1599,0.1671,0.1689,0.1704,0.1687,0.1715,0.1734,0.1537,0.1537,0.1537,0,0,0.1319,0.1335,0.1347,0.1392,0.1426,0.1503,0.1468,0.1507,0.1571,0.1512,0.1588,0.1581,0.1584,0.1649,0.1669,0.1636,0.1758,0.1714,0.1727,0.1701,0.1725,0.1744,0.1761,0.1542,0.1541,0.154,0,0,0.1368,0.1343,0.1394,0.1441,0.1487,0.1511,0.1531,0.1589,0.1605,0.1674,0.166,0.1689,0.1734,0.1756,0.1774,0.189,0.1843,0.1909,0.1994,0.2024,0.204,0.2053,0.2087,0.2101,0.193,0.1931,0.1931,0,0.1361,0.1425,0.1421,0.1502,0.154,0.1533,0.1621,0.1655,0.1714,0.1721,0.171,0.1789,0.1787,0.1876,0.1932,0.1929,0.1938,0.1913,0.2046,0.2058,0.2069,0.2099,0.2114,0.1939,0.1938,0.1937,0.1937,0,0.149,0.1522,0.1559,0.1655,0.1707,0.1756,0.1814,0.1841,0.1848,0.187,0.1928,0.1943,0.198,0.2017,0.2016,0.2114,0.2097,0.2056,0.1986,0.2098,0.2124,0.2136,0.1951,0.1948,0.1946,0.1944,0,0,0.1493,0.1617,0.1624,0.1661,0.1769,0.1807,0.1916,0.1972,0.1992,0.2048,0.2097,0.2178,0.2147,0.2164,0.2175,0.2218,0.233,0.2189,0.2187,0.2213,0.2415,0.2346,0.2352,0.2322,0.2325,0.2326,0.2418,0,0.1576,0.1712,0.1773,0.1885,0.1944,0.1974,0.2063,0.211,0.2127,0.2163,0.2176,0.2221,0.2221,0.2241,0.2294,0.2301,0.2362,0.2309,0.2307,0.2307,0.2224,0.2363,0.2217,0.2281,0.2429,0.2431,0.2432,0,0.1681,0.1731,0.1869,0.1932,0.1962,0.2049,0.2103,0.2174,0.2226,0.2242,0.2292,0.2288,0.2378,0.2343,0.2439,0.2412,0.2432,0.2437,0.244,0.2314,0.2259,0.2185,0.2295,0.2451,0.2449,0.2448,0.2447,0,0.1652,0.1776,0.1856,0.1899,0.201,0.2062,0.2112,0.219,0.2215,0.2289,0.2307,0.2388,0.2422,0.2474,0.2507,0.2486,0.2584,0.2544,0.2505,0.2501,0.2338,0.2315,0.2607,0.2607,0.2607,0.2607,0.2606,0,0.169,0.1736,0.1835,0.1875,0.192,0.2031,0.2085,0.2139,0.2225,0.2251,0.2332,0.2377,0.2455,0.2512,0.2541,0.257,0.262,0.2537,0.2526,0.2395,0.2377,0.2468,0.2451,0.261,0.2609,0.2609,0.2608,0,0.1658,0.1743,0.1798,0.1892,0.192,0.195,0.2062,0.2086,0.2186,0.2238,0.2271,0.2385,0.248,0.2546,0.2625,0.2598,0.2633,0.2627,0.2474,0.2442,0.2525,0.2515,0.26,0.2598,0.2597,0.2596,0.2595,0,0.1651,0.1684,0.1766,0.1784,0.1832,0.1893,0.1937,0.2056,0.2099,0.2232,0.225,0.2373,0.2434,0.254,0.2552,0.2603,0.2645,0.2461,0.2378,0.2547,0.2528,0.252,0.2512,0.2253,0.2249,0.2246,0.2244,0,0.1575,0.1615,0.1647,0.17,0.1749,0.1788,0.1871,0.1902,0.2034,0.2103,0.2203,0.2266,0.238,0.2377,0.2434,0.2428,0.2441,0.2399,0.2635,0.2262,0.2223,0.2202,0.2206,0.2217,0.222,0.2222,0.2224,0.2225,0.1471,0.1481,0.1537,0.1582,0.1638,0.1686,0.1701,0.1789,0.1855,0.1927,0.205,0.2093,0.2176,0.2179,0.2176,0.2181,0.2307,0.2223,0.2231,0.2243,0.2172,0.213,0.2095,0.2097,0.2099,0.21,0.2102,0,0.1323,0.1382,0.1412,0.1475,0.1507,0.1588,0.1647,0.1642,0.1692,0.178,0.1841,0.1748,0.1792,0.1902,0.188,0.1892,0.1858,0.1833,0.1796,0.1825,0.185,0.1756,0.1571,0.1569,0.1567,0.1566,0,0,0.1248,0.1254,0.1308,0.1333,0.1393,0.1415,0.1441,0.1442,0.1487,0.1474,0.1503,0.161,0.179,0.1611,0.1648,0.1618,0.1686,0.1557,0.1989,0.197,0.1992,0.2093,0.1984,0,0,0,0,0]},{"header":{"parameterUnit":"m.s-1","parameterCategory":2,"la1":30.2991,"la2":30.254,"lo1":-89.0895,"lo2":-89.0444,"dy":0.0017,"dx":0.0017,"nx":28,"ny":28,"refTime":"2024-07-01T21:00:00:Z","depth":"2","parameterNumber":3,"parameterNumberName":"V-component_of_CURRENTS"},"data":[0,0,0,0,0,0,0,0,0,0,0,0,0,0,0,0,0,0,0,0,0,0,0,0,0,0,0,0,0,0,0,0,0,0,0,0,0,0,0,0,0,0,0,0,0,0,0,0,0,0,0,0,0,0,0,0,0,0,-0.1007,-0.1006,0,-0.101,-0.1012,-0.1014,-0.1053,-0.1052,-0.1051,-0.105,-0.0942,-0.094,-0.0938,0,0,0,0,0,0,0,0,0,0,0,0,0,-0.1048,-0.1048,-0.1007,-0.1006,-0.1004,-0.101,-0.1012,-0.1014,-0.1053,-0.1052,-0.1051,-0.105,-0.0942,-0.094,-0.0937,0,0,0,0,0,0,0,0,0,0,0,0,0,-0.1058,-0.1049,-0.1008,-0.1009,-0.1007,-0.101,-0.1012,-0.1015,-0.1053,-0.1052,-0.105,-0.1049,-0.0943,-0.094,-0.0937,-0.0945,0,0,-0.0928,-0.0926,0,0,0,0,0,0,0,0,-0.1057,-0.1059,-0.101,-0.1008,-0.1007,-0.1012,-0.0985,-0.0978,-0.1053,-0.1057,-0.105,-0.1048,-0.0942,-0.0939,-0.0974,-0.094,-0.0935,-0.0927,-0.0925,-0.0924,-0.0923,0,0,0,0,0,0,0,-0.1057,-0.1059,-0.1029,-0.1008,-0.1006,-0.1011,-0.1014,-0.0987,-0.1021,-0.1057,-0.1055,-0.1023,-0.0943,-0.0977,-0.097,-0.0933,-0.0927,-0.0925,-0.0923,-0.0922,-0.0874,-0.0874,0,0,0,0,0,0,-0.1016,-0.1058,-0.1029,-0.1027,-0.1006,-0.101,-0.1014,-0.1028,-0.1024,-0.1017,-0.1024,-0.1024,-0.0983,-0.0974,-0.0966,-0.0946,-0.0924,-0.0921,-0.0919,-0.0873,-0.0874,-0.0874,0,0,0,0,0,0,-0.1018,-0.1016,-0.1028,-0.1024,-0.1023,-0.1009,-0.1026,-0.1028,-0.1008,-0.0996,-0.0991,-0.0991,-0.0981,-0.0971,-0.094,-0.0942,-0.092,-0.0917,-0.0872,-0.0873,-0.0874,-0.0921,0,0,0,0,0,0,-0.102,-0.1018,-0.0987,-0.1022,-0.1021,-0.0996,-0.1025,-0.1029,-0.0983,-0.0983,-0.0966,-0.0959,-0.0979,-0.0945,-0.0937,-0.0937,-0.0915,-0.0872,-0.0873,-0.0874,-0.0919,-0.0924,-0.0928,0,0,0,0,0,-0.1023,-0.1002,-0.0988,-0.098,-0.0991,-0.0992,-0.0995,-0.0993,-0.0981,-0.0972,-0.0983,-0.0957,-0.0946,-0.0943,-0.0933,-0.0933,-0.0871,-0.0873,-0.0874,-0.0917,-0.0923,-0.0928,0,0,0,0,0,0,-0.1012,-0.1003,-0.0989,-0.0967,-0.0952,-0.099,-0.0975,-0.0957,-0.0965,-0.095,-0.0959,-0.0954,-0.0942,-0.0919,-0.0915,-0.0924,-0.0904,-0.0904,-0.0941,-0.0946,-0.095,-0.0954,-0.0912,0,0,0,0,0,-0.0987,-0.0965,-0.0961,-0.0934,-0.0938,-0.0943,-0.0928,-0.0915,-0.0925,-0.0926,-0.0907,-0.0908,-0.0951,-0.0927,-0.0943,-0.0919,-0.092,-0.0914,-0.0918,-0.0922,-0.092,-0.0963,-0.0972,-0.0879,-0.0879,-0.0879,0,0,-0.0971,-0.0955,-0.0941,-0.0924,-0.0938,-0.0939,-0.0939,-0.0905,-0.0899,-0.0907,-0.0889,-0.0912,-0.0952,-0.0972,-0.0959,-0.0939,-0.0944,-0.0924,-0.0927,-0.0923,-0.0966,-0.0975,-0.0983,-0.088,-0.0879,-0.0879,0,0,-0.0948,-0.0932,-0.0916,-0.0903,-0.0864,-0.0883,-0.0853,-0.0849,-0.0852,-0.0817,-0.0875,-0.0901,-0.0869,-0.0959,-0.0995,-0.1014,-0.0979,-0.0987,-0.0993,-0.1036,-0.1045,-0.1052,-0.1046,-0.1053,-0.0974,-0.0974,-0.0974,0,-0.0911,-0.0907,-0.0905,-0.0891,-0.0868,-0.0855,-0.084,-0.086,-0.0826,-0.0846,-0.0792,-0.0874,-0.0889,-0.1016,-0.1038,-0.1027,-0.1015,-0.0976,-0.1044,-0.1051,-0.1058,-0.105,-0.1057,-0.0976,-0.0976,-0.0976,-0.0975,0,-0.0888,-0.0872,-0.0872,-0.0861,-0.0843,-0.0818,-0.0832,-0.0821,-0.0789,-0.0804,-0.0849,-0.0897,-0.0944,-0.0968,-0.1004,-0.1087,-0.105,-0.106,-0.1034,-0.107,-0.1059,-0.1066,-0.098,-0.0979,-0.0978,-0.0977,0,0,-0.0839,-0.0851,-0.0841,-0.0852,-0.0811,-0.082,-0.0824,-0.0858,-0.0888,-0.0851,-0.0887,-0.099,-0.0989,-0.1032,-0.1086,-0.1126,-0.1168,-0.1092,-0.1094,-0.1091,-0.1211,-0.1133,-0.1132,-0.1177,-0.1179,-0.118,-0.1178,0,-0.0815,-0.0834,-0.0797,-0.0798,-0.0843,-0.0813,-0.083,-0.0846,-0.0858,-0.0888,-0.0962,-0.1,-0.1026,-0.1033,-0.1091,-0.1152,-0.1187,-0.1165,-0.1171,-0.1171,-0.1103,-0.1139,-0.1099,-0.1089,-0.1183,-0.1184,-0.1185,0,-0.0797,-0.0827,-0.0836,-0.0851,-0.0853,-0.0817,-0.0864,-0.0853,-0.0922,-0.0912,-0.0966,-0.1002,-0.1088,-0.1069,-0.1182,-0.1151,-0.1178,-0.1214,-0.1215,-0.113,-0.1106,-0.107,-0.1096,-0.1195,-0.1194,-0.1194,-0.1193,0,-0.0857,-0.0846,-0.0865,-0.0857,-0.0866,-0.0844,-0.0825,-0.0872,-0.0865,-0.0915,-0.0889,-0.1013,-0.1004,-0.1092,-0.1137,-0.115,-0.1218,-0.1252,-0.1221,-0.1214,-0.1176,-0.1163,-0.1333,-0.1333,-0.1333,-0.1333,-0.1333,0,-0.0871,-0.0885,-0.0894,-0.0908,-0.0899,-0.0876,-0.0853,-0.0858,-0.0847,-0.0814,-0.0883,-0.0869,-0.0998,-0.1047,-0.1124,-0.1159,-0.1203,-0.1223,-0.1219,-0.1186,-0.1174,-0.1267,-0.1259,-0.1333,-0.1333,-0.1333,-0.1333,0,-0.0929,-0.093,-0.0956,-0.0953,-0.0928,-0.0914,-0.0806,-0.0802,-0.0776,-0.0722,-0.0706,-0.0748,-0.0778,-0.0913,-0.103,-0.1098,-0.1177,-0.1183,-0.1104,-0.1091,-0.115,-0.1145,-0.1168,-0.1166,-0.1163,-0.1162,-0.116,0,-0.0957,-0.0999,-0.0979,-0.0939,-0.09,-0.0861,-0.0807,-0.0763,-0.0715,-0.0629,-0.0583,-0.0605,-0.0576,-0.0714,-0.0872,-0.0998,-0.1075,-0.1042,-0.1092,-0.1146,-0.1139,-0.1137,-0.1135,-0.1057,-0.1054,-0.1053,-0.1051,0,-0.1015,-0.0994,-0.099,-0.0926,-0.0848,-0.078,-0.0687,-0.0641,-0.0542,-0.047,-0.0335,-0.0301,-0.0417,-0.052,-0.0706,-0.0809,-0.1026,-0.1005,-0.1105,-0.109,-0.1037,-0.1031,-0.1034,-0.1035,-0.1036,-0.1038,-0.1038,-0.1039,-0.1003,-0.0988,-0.0943,-0.0851,-0.0773,-0.0641,-0.0545,-0.044,-0.03,-0.0119,-0.0132,-0.002,-0.0227,-0.0402,-0.0591,-0.0817,-0.0863,-0.0952,-0.0961,-0.097,-0.0944,-0.0888,-0.0851,-0.0852,-0.0852,-0.0852,-0.0853,0,-0.0959,-0.0922,-0.0856,-0.0714,-0.0584,-0.0562,-0.0409,-0.0289,-0.0074,0.0043,0.0183,0.0116,-0.0015,-0.025,-0.0554,-0.0747,-0.0806,-0.0806,-0.0858,-0.0872,-0.0886,-0.0859,-0.0742,-0.0741,-0.0741,-0.0741,0,0,-0.0925,-0.0825,-0.077,-0.053,-0.0426,-0.0229,-0.0119,0.0027,0.0135,0.0318,0.0402,0.0397,0.0094,-0.0088,-0.0386,-0.0558,-0.0668,-0.0588,-0.0661,-0.0705,-0.0715,-0.0958,-0.0929,0,0,0,0,0]}],[{"header":{"parameterUnit":"m.s-1","parameterCategory":2,"la1":30.2991,"la2":30.254,"lo1":-89.0895,"lo2":-89.0444,"dy":0.0017,"dx":0.0017,"nx":28,"ny":28,"refTime":"2024-07-01T21:00:00:Z","depth":"4","parameterNumber":2,"parameterNumberName":"U-component_of_CURRENTS"},"data":[0,0,0,0,0,0,0,0,0,0,0,0,0,0,0,0,0,0,0,0,0,0,0,0,0,0,0,0,0,0,0,0,0,0,0,0,0,0,0,0,0,0,0,0,0,0,0,0,0,0,0,0,0,0,0,0,0,0,0.0761,0.0763,0,0.087,0.0871,0.0871,0.0921,0.0922,0.0923,0.0924,0.0995,0.0996,0.0997,0,0,0,0,0,0,0,0,0,0,0,0,0,0.0645,0.0645,0.0761,0.0764,0.0766,0.087,0.0871,0.0871,0.0921,0.0922,0.0923,0.0925,0.0995,0.0996,0.0997,0,0,0,0,0,0,0,0,0,0,0,0,0,0.0706,0.0645,0.0761,0.0813,0.082,0.087,0.0871,0.0871,0.0921,0.0922,0.0924,0.0925,0.0994,0.0995,0.0997,0.0973,0,0,0.1001,0.1001,0,0,0,0,0,0,0,0,0.0703,0.0709,0.0803,0.081,0.0817,0.0895,0.0856,0.0908,0.092,0.0869,0.0924,0.0926,0.0965,0.0969,0.0968,0.0976,0.0979,0.1001,0.1002,0.1002,0.1003,0,0,0,0,0,0,0,0.0698,0.0705,0.0791,0.0806,0.0815,0.0849,0.0857,0.0866,0.0896,0.0873,0.0881,0.0912,0.0967,0.0967,0.097,0.0981,0.1001,0.1002,0.1003,0.1004,0.1051,0.1051,0,0,0,0,0,0,0.0706,0.07,0.0788,0.0796,0.0777,0.085,0.0859,0.0858,0.0897,0.0909,0.0911,0.0915,0.0964,0.0969,0.0973,0.1023,0.1002,0.1004,0.1004,0.105,0.1051,0.1051,0,0,0,0,0,0,0.0702,0.0711,0.0784,0.0763,0.0777,0.0851,0.0849,0.086,0.09,0.0928,0.0937,0.0947,0.0965,0.0971,0.1012,0.1024,0.1004,0.1005,0.105,0.1051,0.1051,0.1076,0,0,0,0,0,0,0.0698,0.0708,0.072,0.0762,0.0778,0.0825,0.0849,0.0861,0.0921,0.0927,0.0961,0.0967,0.0967,0.101,0.1013,0.1025,0.1006,0.1049,0.105,0.1051,0.1074,0.1077,0.1079,0,0,0,0,0,0.0692,0.0703,0.0718,0.0731,0.0787,0.0827,0.0836,0.0887,0.0921,0.0929,0.0966,0.0968,0.1018,0.1012,0.1016,0.1028,0.1049,0.105,0.1051,0.1073,0.1076,0.1079,0,0,0,0,0,0,0.0674,0.0711,0.0729,0.0754,0.0795,0.084,0.0871,0.0906,0.094,0.0964,0.0979,0.0986,0.1016,0.1023,0.1017,0.1043,0.1031,0.1033,0.1047,0.105,0.1052,0.1058,0.1008,0,0,0,0,0,0.0672,0.0674,0.0727,0.0748,0.0773,0.0825,0.0858,0.0896,0.0936,0.0954,0.0971,0.0998,0.1014,0.1038,0.1038,0.1066,0.1073,0.1075,0.1077,0.108,0.1087,0.1104,0.1109,0.1055,0.1055,0.1055,0,0,0.0673,0.0697,0.0701,0.0743,0.0779,0.0821,0.0845,0.0905,0.0943,0.0955,0.0998,0.1002,0.102,0.104,0.1055,0.1058,0.1099,0.1081,0.1083,0.1089,0.1105,0.111,0.1115,0.1056,0.1055,0.1055,0,0,0.0682,0.0695,0.071,0.0743,0.0815,0.0841,0.0867,0.0921,0.0948,0.1004,0.1005,0.102,0.1065,0.1055,0.1068,0.1089,0.1101,0.1097,0.1131,0.1147,0.1152,0.1156,0.1176,0.1181,0.1112,0.1112,0.1112,0,0.0694,0.0708,0.0725,0.0763,0.0796,0.0855,0.0892,0.093,0.0988,0.1,0.1031,0.1066,0.1071,0.1088,0.1096,0.1094,0.1116,0.1119,0.1151,0.1156,0.116,0.1178,0.1184,0.1113,0.1113,0.1113,0.1113,0,0.0715,0.0743,0.076,0.0807,0.0837,0.0881,0.0938,0.0969,0.1021,0.1052,0.1087,0.1096,0.1119,0.1117,0.1127,0.1144,0.1154,0.1141,0.1144,0.1167,0.1185,0.1191,0.1115,0.1114,0.1114,0.1114,0,0,0.07,0.076,0.077,0.0798,0.0865,0.0893,0.0947,0.0992,0.1037,0.1088,0.1122,0.1147,0.1153,0.1165,0.1158,0.1179,0.1218,0.1189,0.1189,0.121,0.1275,0.1243,0.1246,0.1226,0.1227,0.1228,0.1278,0,0.0718,0.077,0.0794,0.0853,0.0885,0.0933,0.0968,0.102,0.1072,0.1112,0.1138,0.1172,0.1175,0.1195,0.1214,0.1211,0.1236,0.1207,0.1249,0.125,0.122,0.1252,0.1231,0.1282,0.1284,0.1285,0.1285,0,0.0733,0.0762,0.0805,0.0863,0.0882,0.0928,0.0982,0.1024,0.1086,0.1138,0.1182,0.1203,0.1232,0.1236,0.1277,0.127,0.128,0.1284,0.1286,0.1252,0.1229,0.1254,0.1296,0.1295,0.1294,0.1294,0.1293,0,0.069,0.0772,0.0793,0.0817,0.0891,0.0923,0.0965,0.1028,0.1061,0.115,0.12,0.124,0.1279,0.1302,0.1331,0.1315,0.138,0.1347,0.1325,0.1323,0.1325,0.132,0.1374,0.1374,0.1374,0.1374,0.1374,0,0.0679,0.0705,0.0789,0.0801,0.0844,0.0905,0.0962,0.1016,0.1089,0.1131,0.1206,0.1255,0.1306,0.1346,0.1352,0.1374,0.1403,0.1341,0.1337,0.1334,0.133,0.133,0.1324,0.1376,0.1375,0.1375,0.1375,0,0.0615,0.0668,0.0703,0.0787,0.0821,0.0848,0.0954,0.0993,0.109,0.1148,0.118,0.1278,0.1355,0.1394,0.1436,0.1406,0.1418,0.1414,0.1431,0.1425,0.1341,0.1336,0.1382,0.1382,0.1381,0.1381,0.138,0,0.0577,0.0588,0.0672,0.0701,0.0746,0.082,0.0864,0.0973,0.1017,0.1156,0.1165,0.1278,0.1341,0.1383,0.1431,0.1459,0.1441,0.1435,0.1364,0.1352,0.1344,0.134,0.1335,0.138,0.1379,0.1379,0.1379,0,0.0492,0.0528,0.0553,0.0622,0.0681,0.074,0.0821,0.0853,0.0975,0.1072,0.1153,0.1213,0.1302,0.1355,0.1405,0.141,0.1429,0.1429,0.1428,0.1361,0.1349,0.1341,0.1337,0.1377,0.1377,0.1378,0.1378,0,0.0423,0.0424,0.0476,0.0542,0.0604,0.065,0.0709,0.0795,0.0854,0.1014,0.1041,0.1181,0.1283,0.1332,0.1369,0.1393,0.1361,0.1302,0.1307,0.131,0.1267,0.1239,0.124,0,0,0,0,0,0.0356,0.037,0.0406,0.0471,0.0536,0.0586,0.0674,0.0739,0.0868,0.0898,0.0973,0.1061,0.1162,0.1231,0.1242,0.1327,0.1352,0.1333,0.128,0.1367,0.1369,0.1327,0,0,0,0,0,0,0.0316,0.0334,0.0372,0.0412,0.0458,0.0518,0.0576,0.0659,0.0693,0.0831,0.0891,0.1003,0.1109,0.115,0.1224,0.1245,0.1193,0.1421,0.1419,0.1366,0.1368,0.1369,0.1327,0,0,0,0,0]},{"header":{"parameterUnit":"m.s-1","parameterCategory":2,"la1":30.2991,"la2":30.254,"lo1":-89.0895,"lo2":-89.0444,"dy":0.0017,"dx":0.0017,"nx":28,"ny":28,"refTime":"2024-07-01T21:00:00:Z","depth":"4","parameterNumber":3,"parameterNumberName":"V-component_of_CURRENTS"},"data":[0,0,0,0,0,0,0,0,0,0,0,0,0,0,0,0,0,0,0,0,0,0,0,0,0,0,0,0,0,0,0,0,0,0,0,0,0,0,0,0,0,0,0,0,0,0,0,0,0,0,0,0,0,0,0,0,0,0,-0.0318,-0.032,0,-0.0447,-0.0448,-0.0449,-0.051,-0.051,-0.0511,-0.0511,-0.0584,-0.0585,-0.0586,0,0,0,0,0,0,0,0,0,0,0,0,0,-0.021,-0.021,-0.0318,-0.032,-0.0322,-0.0447,-0.0448,-0.0449,-0.051,-0.051,-0.0511,-0.0512,-0.0583,-0.0585,-0.0587,0,0,0,0,0,0,0,0,0,0,0,0,0,-0.0282,-0.021,-0.0317,-0.0373,-0.038,-0.0446,-0.0448,-0.0449,-0.0509,-0.051,-0.0511,-0.0512,-0.0583,-0.0585,-0.0587,-0.0582,0,0,-0.0593,-0.0594,0,0,0,0,0,0,0,0,-0.0278,-0.0285,-0.0362,-0.0369,-0.0377,-0.0469,-0.0437,-0.0493,-0.0509,-0.0453,-0.0511,-0.0512,-0.0544,-0.0549,-0.0563,-0.0586,-0.0589,-0.0593,-0.0595,-0.0596,-0.0596,0,0,0,0,0,0,0,-0.0273,-0.0281,-0.0362,-0.0365,-0.0374,-0.0421,-0.0431,-0.0448,-0.0485,-0.0458,-0.0464,-0.0489,-0.0547,-0.056,-0.0565,-0.059,-0.0593,-0.0595,-0.0596,-0.0597,-0.0789,-0.0792,0,0,0,0,0,0,-0.0266,-0.0275,-0.0358,-0.0366,-0.0337,-0.0423,-0.0433,-0.0433,-0.0487,-0.0498,-0.0489,-0.0492,-0.0556,-0.0562,-0.0567,-0.0652,-0.0596,-0.0597,-0.0599,-0.0785,-0.079,-0.0794,0,0,0,0,0,0,-0.0262,-0.0271,-0.0353,-0.0331,-0.0346,-0.0424,-0.0423,-0.0435,-0.0473,-0.0512,-0.0521,-0.0518,-0.0557,-0.0565,-0.065,-0.0652,-0.0598,-0.06,-0.078,-0.0786,-0.0792,-0.0764,0,0,0,0,0,0,-0.0258,-0.0268,-0.0279,-0.033,-0.0347,-0.0408,-0.0423,-0.0437,-0.049,-0.0495,-0.054,-0.0546,-0.0559,-0.0647,-0.0652,-0.0653,-0.0602,-0.0775,-0.0783,-0.079,-0.076,-0.0769,-0.0775,0,0,0,0,0,-0.0253,-0.0259,-0.0278,-0.029,-0.0354,-0.0409,-0.0422,-0.0476,-0.049,-0.0511,-0.0577,-0.0546,-0.0696,-0.0652,-0.0657,-0.0658,-0.0772,-0.0781,-0.0789,-0.0757,-0.0767,-0.0775,0,0,0,0,0,0,-0.0238,-0.0268,-0.0289,-0.0311,-0.0366,-0.0423,-0.0454,-0.0485,-0.0549,-0.0572,-0.0591,-0.0604,-0.068,-0.0696,-0.0647,-0.0749,-0.0729,-0.0739,-0.0703,-0.0713,-0.072,-0.0641,-0.0604,0,0,0,0,0,-0.0234,-0.0227,-0.0292,-0.0308,-0.0338,-0.0397,-0.0432,-0.0477,-0.0538,-0.0567,-0.0593,-0.0653,-0.0715,-0.0737,-0.0791,-0.0832,-0.0811,-0.0847,-0.0855,-0.086,-0.0809,-0.0808,-0.0807,-0.0822,-0.0822,-0.0822,0,0,-0.0231,-0.025,-0.0249,-0.0303,-0.0346,-0.0395,-0.0418,-0.0485,-0.0523,-0.0564,-0.0618,-0.0678,-0.0742,-0.0807,-0.0839,-0.0817,-0.086,-0.0871,-0.0874,-0.0819,-0.0816,-0.0813,-0.0811,-0.0828,-0.0827,-0.0826,0,0,-0.0235,-0.0241,-0.0256,-0.0298,-0.038,-0.0412,-0.0434,-0.0506,-0.0537,-0.0628,-0.0664,-0.0721,-0.082,-0.0833,-0.0865,-0.0944,-0.0909,-0.0989,-0.0936,-0.0937,-0.0933,-0.0928,-0.0934,-0.093,-0.0978,-0.0978,-0.0978,0,-0.025,-0.0259,-0.0277,-0.0321,-0.0347,-0.0416,-0.0457,-0.0503,-0.0594,-0.06,-0.0659,-0.0771,-0.082,-0.0849,-0.0893,-0.0944,-0.0953,-0.0882,-0.0936,-0.0931,-0.0927,-0.0933,-0.0928,-0.0978,-0.0978,-0.0978,-0.0978,0,-0.0277,-0.0295,-0.031,-0.036,-0.0391,-0.0438,-0.0501,-0.0537,-0.0592,-0.0627,-0.0691,-0.0771,-0.0816,-0.0863,-0.0907,-0.0903,-0.0924,-0.0947,-0.0883,-0.0921,-0.0929,-0.0925,-0.0978,-0.0978,-0.0978,-0.0978,0,0,-0.0301,-0.032,-0.0335,-0.0332,-0.0411,-0.0428,-0.0482,-0.0519,-0.0523,-0.0625,-0.0616,-0.0735,-0.0748,-0.0784,-0.0827,-0.0827,-0.0833,-0.0872,-0.0873,-0.0824,-0.0845,-0.0826,-0.082,-0.0869,-0.0868,-0.0867,-0.0871,0,-0.0333,-0.036,-0.0373,-0.0396,-0.0408,-0.0446,-0.0462,-0.0503,-0.0553,-0.0562,-0.0622,-0.0661,-0.0729,-0.0755,-0.0765,-0.0822,-0.0817,-0.0829,-0.086,-0.086,-0.0792,-0.0811,-0.0862,-0.0868,-0.0867,-0.0866,-0.0866,0,-0.0387,-0.0375,-0.0386,-0.0353,-0.0363,-0.0387,-0.0378,-0.04,-0.0429,-0.0477,-0.0509,-0.0561,-0.0579,-0.0644,-0.0696,-0.0711,-0.076,-0.08,-0.0802,-0.0768,-0.083,-0.0823,-0.0858,-0.0859,-0.0859,-0.086,-0.086,0,-0.0365,-0.0387,-0.036,-0.0365,-0.0358,-0.0355,-0.0348,-0.0371,-0.0357,-0.0396,-0.0409,-0.0457,-0.0489,-0.0547,-0.0658,-0.0681,-0.0712,-0.0756,-0.0771,-0.0772,-0.0792,-0.0797,-0.0755,-0.0755,-0.0755,-0.0755,-0.0755,0,-0.0375,-0.0363,-0.0344,-0.0329,-0.028,-0.0296,-0.026,-0.0272,-0.0277,-0.0246,-0.0334,-0.0336,-0.0469,-0.052,-0.0611,-0.0677,-0.068,-0.0731,-0.0757,-0.0796,-0.08,-0.0791,-0.0795,-0.0755,-0.0755,-0.0755,-0.0755,0,-0.0351,-0.0354,-0.0308,-0.0277,-0.0266,-0.022,-0.0188,-0.0162,-0.0187,-0.0152,-0.016,-0.0243,-0.0326,-0.0445,-0.0551,-0.0613,-0.0681,-0.07,-0.0723,-0.0756,-0.075,-0.0754,-0.0699,-0.0698,-0.0697,-0.0697,-0.0696,0,-0.0325,-0.0304,-0.0244,-0.021,-0.0196,-0.0148,-0.0116,-0.0119,-0.0096,-0.0092,-0.0065,-0.0138,-0.0213,-0.0329,-0.0476,-0.0622,-0.065,-0.0678,-0.0706,-0.0705,-0.0737,-0.0743,-0.0748,-0.0695,-0.0694,-0.0694,-0.0694,0,-0.025,-0.0241,-0.019,-0.0132,-0.0093,-0.0036,0.0001,0.0025,0.0029,0.0016,0.002,-0.0058,-0.0145,-0.0294,-0.0418,-0.0525,-0.0656,-0.067,-0.0673,-0.07,-0.07,-0.0733,-0.0739,-0.0691,-0.0692,-0.0692,-0.0692,0,-0.0181,-0.0139,-0.0096,-0.0048,-0.0001,0.0038,0.0062,0.0083,0.011,0.0103,0.0106,-0.0004,-0.0081,-0.0241,-0.0347,-0.0461,-0.0491,-0.0519,-0.0531,-0.0535,-0.05,-0.0477,-0.039,0,0,0,0,0,-0.0111,-0.0084,-0.0022,0.0021,0.0056,0.0065,0.012,0.0129,0.0132,0.0158,0.0131,0.0051,-0.0106,-0.018,-0.0285,-0.0354,-0.053,-0.048,-0.0572,-0.0675,-0.0679,-0.0664,0,0,0,0,0,0,-0.0066,-0.0014,-0.0007,0.0044,0.0062,0.0102,0.0126,0.0139,0.0146,0.0142,0.0061,0.003,-0.0133,-0.0058,-0.0292,-0.0327,-0.0394,-0.0559,-0.0561,-0.0673,-0.0676,-0.0679,-0.0665,0,0,0,0,0]}]]